AMX787 FZAA-FEFF

Flight info

Callsign AMX787
Flight time 1h 24m
Altitude 37000
Route GUSAR4B GUSAR DCT GALNI UA410 SERAL DCT SABSA SABSA2K
Aircraft B738/M-SDE2E3FGHIRWXY/LB1

Departure

Time 2026-05-06 02:42
Airport Ndjili International Airport (FZAA)

Arrival

Time 2026-05-06 04:06
Airport Bangui M'Poko International Airport (FEFF)
Time Latitude Longitude Altitude Speed Heading
2026-05-06 02:10 -4.38893 15.44503 1029 ft 0 kts 194°
2026-05-06 02:34 -4.38889 15.44504 1028 ft 2 kts 193°
2026-05-06 02:35 -4.38871 15.44505 1028 ft 3 kts 171°
2026-05-06 02:35 -4.38860 15.44498 1028 ft 1 kts 96°
2026-05-06 02:35 -4.38863 15.44488 1028 ft 1 kts 30°
2026-05-06 02:35 -4.38867 15.44486 1028 ft 0 kts 353°
2026-05-06 02:36 -4.38863 15.44484 1028 ft 2 kts 330°
2026-05-06 02:36 -4.38869 15.44399 1026 ft 24 kts 261°
2026-05-06 02:36 -4.38935 15.44250 1027 ft 13 kts 241°
2026-05-06 02:36 -4.38947 15.44168 1026 ft 11 kts 299°
2026-05-06 02:37 -4.38881 15.44114 1022 ft 12 kts 333°
2026-05-06 02:37 -4.38851 15.44050 1020 ft 7 kts 261°
2026-05-06 02:37 -4.38872 15.44007 1020 ft 8 kts 242°
2026-05-06 02:37 -4.38944 15.43878 1019 ft 28 kts 238°
2026-05-06 02:38 -4.39045 15.43715 1018 ft 26 kts 238°
2026-05-06 02:38 -4.39137 15.43565 1016 ft 24 kts 238°
2026-05-06 02:38 -4.39223 15.43422 1013 ft 24 kts 239°
2026-05-06 02:38 -4.39308 15.43283 1012 ft 22 kts 236°
2026-05-06 02:39 -4.39402 15.43161 1010 ft 20 kts 238°
2026-05-06 02:39 -4.39476 15.43039 1007 ft 20 kts 238°
2026-05-06 02:39 -4.39553 15.42915 1003 ft 21 kts 238°
2026-05-06 02:39 -4.39650 15.42835 1002 ft 15 kts 205°
2026-05-06 02:40 -4.39713 15.42774 1000 ft 11 kts 236°
2026-05-06 02:40 -4.39720 15.42734 998 ft 0 kts 290°
2026-05-06 02:40 -4.39696 15.42719 998 ft 2 kts 24°
2026-05-06 02:41 -4.39687 15.42724 998 ft 4 kts 41°
2026-05-06 02:41 -4.39510 15.42998 1006 ft 93 kts 56°
2026-05-06 02:41 -4.38982 15.43802 1020 ft 175 kts 57°
2026-05-06 02:41 -4.38252 15.44949 1512 ft 208 kts 58°
2026-05-06 02:42 -4.37495 15.46191 2358 ft 218 kts 59°
2026-05-06 02:42 -4.36591 15.47467 3085 ft 235 kts 43°
2026-05-06 02:42 -4.35117 15.48270 3788 ft 247 kts 16°
2026-05-06 02:42 -4.33396 15.48713 4619 ft 268 kts 13°
2026-05-06 02:43 -4.31595 15.49193 5993 ft 271 kts 17°
2026-05-06 02:43 -4.29835 15.49736 7394 ft 270 kts 18°
2026-05-06 02:43 -4.28036 15.50332 8465 ft 281 kts 19°
2026-05-06 02:43 -4.26214 15.51011 9661 ft 284 kts 25°
2026-05-06 02:44 -4.24482 15.51958 10743 ft 291 kts 32°
2026-05-06 02:44 -4.22767 15.53075 11601 ft 296 kts 34°
2026-05-06 02:44 -4.21062 15.54231 12387 ft 302 kts 34°
2026-05-06 02:44 -4.19308 15.55408 13205 ft 307 kts 34°
2026-05-06 02:45 -4.17511 15.56593 14039 ft 310 kts 34°
2026-05-06 02:45 -4.15716 15.57764 14797 ft 314 kts 34°
2026-05-06 02:45 -4.13876 15.58958 15581 ft 317 kts 34°
2026-05-06 02:45 -4.12017 15.60163 16300 ft 321 kts 34°
2026-05-06 02:46 -4.10128 15.61388 16990 ft 326 kts 34°
2026-05-06 02:46 -4.08211 15.62630 17662 ft 331 kts 34°
2026-05-06 02:46 -4.06238 15.63911 18005 ft 347 kts 34°
2026-05-06 02:46 -4.04170 15.65253 18410 ft 360 kts 34°
2026-05-06 02:47 -4.02037 15.66636 18748 ft 374 kts 34°
2026-05-06 02:47 -3.99783 15.68098 19041 ft 389 kts 34°
2026-05-06 02:47 -3.97465 15.69599 19339 ft 402 kts 34°
2026-05-06 02:47 -3.95110 15.71123 19953 ft 406 kts 34°
2026-05-06 02:48 -3.92733 15.72659 20520 ft 410 kts 34°
2026-05-06 02:48 -3.90337 15.74209 21137 ft 413 kts 34°
2026-05-06 02:48 -3.87892 15.75791 21665 ft 417 kts 34°
2026-05-06 02:48 -3.85473 15.77358 22263 ft 419 kts 34°
2026-05-06 02:49 -3.82983 15.78970 22843 ft 422 kts 33°
2026-05-06 02:49 -3.80507 15.80573 23357 ft 426 kts 33°
2026-05-06 02:49 -3.78016 15.82187 23918 ft 429 kts 33°
2026-05-06 02:49 -3.75481 15.83829 24389 ft 434 kts 33°
2026-05-06 02:50 -3.72969 15.85456 24963 ft 435 kts 33°
2026-05-06 02:50 -3.70390 15.87126 25433 ft 439 kts 33°
2026-05-06 02:50 -3.67845 15.88774 26202 ft 435 kts 33°
2026-05-06 02:50 -3.65326 15.90404 26895 ft 433 kts 33°
2026-05-06 02:51 -3.62791 15.92046 27532 ft 432 kts 33°
2026-05-06 02:51 -3.60272 15.93676 28164 ft 430 kts 33°
2026-05-06 02:51 -3.57766 15.95298 28801 ft 428 kts 33°
2026-05-06 02:51 -3.55253 15.96925 29397 ft 427 kts 33°
2026-05-06 02:52 -3.52779 15.98527 29948 ft 427 kts 33°
2026-05-06 02:52 -3.50279 16.00146 30531 ft 426 kts 33°
2026-05-06 02:52 -3.47775 16.01767 31127 ft 424 kts 33°
2026-05-06 02:52 -3.45308 16.03364 31621 ft 424 kts 33°
2026-05-06 02:53 -3.42823 16.04973 32140 ft 424 kts 33°
2026-05-06 02:53 -3.40341 16.06580 32613 ft 424 kts 33°
2026-05-06 02:53 -3.37882 16.08171 33151 ft 422 kts 33°
2026-05-06 02:53 -3.35397 16.09760 33721 ft 421 kts 32°
2026-05-06 02:54 -3.32855 16.11216 34202 ft 421 kts 27°
2026-05-06 02:54 -3.30175 16.12394 34760 ft 419 kts 20°
2026-05-06 02:54 -3.27406 16.13242 35351 ft 415 kts 14°
2026-05-06 02:54 -3.24553 16.13760 35860 ft 414 kts
2026-05-06 02:55 -3.21652 16.13935 36317 ft 413 kts
2026-05-06 02:55 -3.18793 16.13793 36731 ft 413 kts 356°
2026-05-06 02:55 -3.15920 16.13499 36894 ft 417 kts 355°
2026-05-06 02:56 -3.10090 16.12986 36909 ft 417 kts 358°
2026-05-06 02:56 -3.04305 16.12766 36915 ft 411 kts 360°
2026-05-06 02:57 -2.98585 16.12709 36909 ft 411 kts
2026-05-06 02:57 -2.92809 16.12701 36911 ft 415 kts
2026-05-06 02:58 -2.87025 16.12705 36906 ft 413 kts
2026-05-06 02:58 -2.81265 16.12709 36903 ft 412 kts
2026-05-06 02:59 -2.75516 16.12715 36906 ft 413 kts
2026-05-06 02:59 -2.69737 16.12720 36902 ft 414 kts
2026-05-06 03:00 -2.63996 16.12723 36898 ft 414 kts
2026-05-06 03:00 -2.58190 16.12729 36893 ft 415 kts
2026-05-06 03:01 -2.52389 16.12737 36893 ft 416 kts
2026-05-06 03:01 -2.46579 16.12740 36890 ft 416 kts
2026-05-06 03:02 -2.40802 16.12744 36887 ft 416 kts
2026-05-06 03:02 -2.34992 16.12749 36892 ft 417 kts
2026-05-06 03:03 -2.29138 16.12752 36898 ft 419 kts
2026-05-06 03:03 -2.23290 16.12756 36897 ft 420 kts
2026-05-06 03:04 -2.17434 16.12761 36899 ft 420 kts
2026-05-06 03:04 -2.11582 16.12767 36899 ft 420 kts
2026-05-06 03:05 -2.05704 16.12772 36900 ft 420 kts
2026-05-06 03:05 -1.99848 16.12827 36901 ft 420 kts
2026-05-06 03:06 -1.94073 16.13697 36905 ft 419 kts 16°
2026-05-06 03:06 -1.88516 16.15584 36895 ft 418 kts 21°
2026-05-06 03:07 -1.83097 16.17684 36884 ft 416 kts 22°
2026-05-06 03:07 -1.77726 16.19780 36881 ft 415 kts 22°
2026-05-06 03:08 -1.72305 16.21862 36880 ft 416 kts 21°
2026-05-06 03:08 -1.66853 16.23936 36883 ft 419 kts 21°
2026-05-06 03:09 -1.61343 16.26023 36878 ft 431 kts 21°
2026-05-06 03:09 -1.55649 16.28176 36878 ft 444 kts 21°
2026-05-06 03:10 -1.49736 16.30411 36880 ft 456 kts 21°
2026-05-06 03:10 -1.43714 16.32687 36879 ft 465 kts 21°
2026-05-06 03:11 -1.37655 16.34975 36881 ft 463 kts 21°
2026-05-06 03:11 -1.31614 16.37255 36883 ft 461 kts 21°
2026-05-06 03:12 -1.25562 16.39541 36884 ft 463 kts 21°
2026-05-06 03:12 -1.19552 16.41812 36886 ft 462 kts 22°
2026-05-06 03:13 -1.13502 16.44099 36887 ft 462 kts 22°
2026-05-06 03:13 -1.07469 16.46379 36888 ft 461 kts 22°
2026-05-06 03:14 -1.01456 16.48649 36888 ft 461 kts 22°
2026-05-06 03:14 -0.95477 16.50907 36893 ft 461 kts 22°
2026-05-06 03:15 -0.89425 16.53194 36898 ft 463 kts 22°
2026-05-06 03:15 -0.83391 16.55473 36899 ft 463 kts 22°
2026-05-06 03:16 -0.77332 16.57762 36901 ft 462 kts 22°
2026-05-06 03:16 -0.71282 16.60046 36901 ft 462 kts 22°
2026-05-06 03:17 -0.65277 16.62314 36901 ft 461 kts 22°
2026-05-06 03:17 -0.59226 16.64600 36901 ft 462 kts 22°
2026-05-06 03:18 -0.53163 16.66890 36902 ft 462 kts 22°
2026-05-06 03:18 -0.47164 16.69155 36903 ft 462 kts 22°
2026-05-06 03:19 -0.41064 16.71457 36903 ft 462 kts 22°
2026-05-06 03:19 -0.34996 16.73748 36904 ft 463 kts 22°
2026-05-06 03:20 -0.25941 16.77167 36907 ft 462 kts 22°
2026-05-06 03:20 -0.19912 16.79441 36907 ft 462 kts 22°
2026-05-06 03:21 -0.13880 16.81717 36908 ft 463 kts 22°
2026-05-06 03:21 -0.07855 16.83989 36917 ft 462 kts 22°
2026-05-06 03:22 -0.01783 16.86283 36925 ft 462 kts 22°
2026-05-06 03:22 0.04231 16.88555 36924 ft 462 kts 22°
2026-05-06 03:23 0.10280 16.90839 36924 ft 462 kts 22°
2026-05-06 03:23 0.16285 16.93106 36924 ft 462 kts 22°
2026-05-06 03:24 0.22347 16.95395 36927 ft 461 kts 22°
2026-05-06 03:24 0.28361 16.97666 36925 ft 461 kts 22°
2026-05-06 03:25 0.34391 16.99942 36928 ft 463 kts 22°
2026-05-06 03:25 0.40450 17.02229 36923 ft 463 kts 22°
2026-05-06 03:26 0.46507 17.04515 36924 ft 463 kts 22°
2026-05-06 03:26 0.52547 17.06794 36917 ft 462 kts 22°
2026-05-06 03:27 0.58548 17.09059 36913 ft 463 kts 22°
2026-05-06 03:27 0.64624 17.11354 36911 ft 463 kts 22°
2026-05-06 03:28 0.70654 17.13630 36909 ft 463 kts 22°
2026-05-06 03:28 0.76705 17.15914 36913 ft 463 kts 22°
2026-05-06 03:29 0.82756 17.18197 36908 ft 463 kts 22°
2026-05-06 03:29 0.88770 17.20471 36903 ft 463 kts 22°
2026-05-06 03:30 0.94852 17.22771 36906 ft 464 kts 22°
2026-05-06 03:30 1.00884 17.25048 36903 ft 462 kts 22°
2026-05-06 03:31 1.06903 17.27317 36906 ft 462 kts 22°
2026-05-06 03:31 1.12941 17.29596 36911 ft 463 kts 22°
2026-05-06 03:32 1.18988 17.31880 36908 ft 463 kts 22°
2026-05-06 03:32 1.25021 17.34158 36907 ft 462 kts 22°
2026-05-06 03:33 1.31041 17.36432 36910 ft 462 kts 22°
2026-05-06 03:33 1.37119 17.38728 36910 ft 463 kts 22°
2026-05-06 03:34 1.43155 17.41007 36911 ft 463 kts 22°
2026-05-06 03:34 1.49189 17.43287 36911 ft 463 kts 22°
2026-05-06 03:35 1.55242 17.45573 36912 ft 462 kts 22°
2026-05-06 03:35 1.61283 17.47855 36915 ft 461 kts 22°
2026-05-06 03:36 1.67284 17.50123 36916 ft 461 kts 22°
2026-05-06 03:36 1.73301 17.52399 36915 ft 462 kts 22°
2026-05-06 03:37 1.79326 17.54676 36915 ft 462 kts 22°
2026-05-06 03:37 1.85373 17.56960 36916 ft 461 kts 22°
2026-05-06 03:38 1.91369 17.59224 36916 ft 462 kts 22°
2026-05-06 03:38 1.97409 17.61507 36913 ft 461 kts 22°
2026-05-06 03:39 2.03431 17.63783 36915 ft 461 kts 22°
2026-05-06 03:39 2.09435 17.66053 36916 ft 461 kts 21°
2026-05-06 03:40 2.15434 17.68321 36918 ft 461 kts 21°
2026-05-06 03:40 2.21464 17.70600 36927 ft 462 kts 22°
2026-05-06 03:41 2.27518 17.72891 36934 ft 463 kts 22°
2026-05-06 03:41 2.33521 17.75164 36935 ft 462 kts 22°
2026-05-06 03:42 2.39552 17.77447 36932 ft 462 kts 21°
2026-05-06 03:42 2.45582 17.79728 36930 ft 462 kts 21°
2026-05-06 03:43 2.51620 17.82012 36928 ft 462 kts 21°
2026-05-06 03:43 2.57661 17.84297 36928 ft 462 kts 21°
2026-05-06 03:44 2.63665 17.86569 36867 ft 458 kts 21°
2026-05-06 03:44 2.66645 17.87696 36176 ft 458 kts 21°
2026-05-06 03:44 2.69646 17.88832 34958 ft 466 kts 21°
2026-05-06 03:45 2.72720 17.89996 33834 ft 470 kts 21°
2026-05-06 03:45 2.75787 17.91157 32686 ft 475 kts 21°
2026-05-06 03:45 2.78861 17.92322 31728 ft 477 kts 21°
2026-05-06 03:45 2.81971 17.93500 30851 ft 478 kts 21°
2026-05-06 03:46 2.85083 17.94678 29890 ft 480 kts 21°
2026-05-06 03:46 2.88207 17.95861 28939 ft 481 kts 21°
2026-05-06 03:46 2.91341 17.97048 27963 ft 482 kts 21°
2026-05-06 03:46 2.94474 17.98233 27111 ft 480 kts 21°
2026-05-06 03:47 2.97582 17.99410 26392 ft 476 kts 21°
2026-05-06 03:47 3.00657 18.00574 25876 ft 467 kts 21°
2026-05-06 03:47 3.03676 18.01716 25385 ft 458 kts 21°
2026-05-06 03:47 3.06627 18.02833 24893 ft 449 kts 22°
2026-05-06 03:48 3.09525 18.03930 24401 ft 440 kts 22°
2026-05-06 03:48 3.12356 18.05001 23915 ft 433 kts 22°
2026-05-06 03:48 3.15140 18.06055 23435 ft 425 kts 22°
2026-05-06 03:48 3.17897 18.07099 22958 ft 418 kts 22°
2026-05-06 03:49 3.20598 18.08122 22485 ft 412 kts 22°
2026-05-06 03:49 3.23278 18.09137 22018 ft 406 kts 22°
2026-05-06 03:49 3.25871 18.10120 21562 ft 400 kts 22°
2026-05-06 03:49 3.28487 18.11112 21096 ft 394 kts 22°
2026-05-06 03:50 3.31024 18.12075 20639 ft 389 kts 22°
2026-05-06 03:50 3.33538 18.13028 20178 ft 384 kts 22°
2026-05-06 03:50 3.36021 18.13970 19717 ft 379 kts 23°
2026-05-06 03:50 3.38470 18.14899 19255 ft 374 kts 23°
2026-05-06 03:51 3.40915 18.15826 18789 ft 370 kts 23°
2026-05-06 03:51 3.43302 18.16731 18330 ft 365 kts 23°
2026-05-06 03:51 3.45665 18.17629 17872 ft 361 kts 23°
2026-05-06 03:51 3.48000 18.18516 17410 ft 357 kts 23°
2026-05-06 03:52 3.50329 18.19400 16946 ft 353 kts 23°
2026-05-06 03:52 3.52620 18.20269 16478 ft 350 kts 22°
2026-05-06 03:52 3.54872 18.21124 16017 ft 346 kts 22°
2026-05-06 03:52 3.57114 18.21975 15556 ft 343 kts 22°
2026-05-06 03:53 3.59331 18.22815 15087 ft 339 kts 22°
2026-05-06 03:53 3.61556 18.23659 14606 ft 336 kts 22°
2026-05-06 03:53 3.63729 18.24483 14138 ft 332 kts 22°
2026-05-06 03:53 3.65889 18.25303 13669 ft 329 kts 22°
2026-05-06 03:54 3.68036 18.26116 13193 ft 326 kts 22°
2026-05-06 03:54 3.70152 18.26919 12720 ft 323 kts 22°
2026-05-06 03:54 3.72258 18.27719 12243 ft 321 kts 22°
2026-05-06 03:54 3.74328 18.28505 11773 ft 318 kts 22°
2026-05-06 03:55 3.76398 18.29290 11297 ft 316 kts 22°
2026-05-06 03:55 3.78458 18.30071 10820 ft 314 kts 22°
2026-05-06 03:55 3.80503 18.30846 10343 ft 313 kts 22°
2026-05-06 03:55 3.82526 18.31613 9867 ft 311 kts 22°
2026-05-06 03:56 3.84547 18.32380 9394 ft 309 kts 22°
2026-05-06 03:56 3.86567 18.33147 8914 ft 308 kts 22°
2026-05-06 03:56 3.88553 18.33901 8441 ft 307 kts 21°
2026-05-06 03:56 3.90558 18.34662 7961 ft 306 kts 21°
2026-05-06 03:57 3.92569 18.35424 7481 ft 306 kts 21°
2026-05-06 03:57 3.94544 18.36173 7006 ft 305 kts 21°
2026-05-06 03:57 3.96533 18.36928 6530 ft 304 kts 21°
2026-05-06 03:57 3.98517 18.37681 6052 ft 304 kts 21°
2026-05-06 03:58 4.00450 18.38519 5571 ft 303 kts 28°
2026-05-06 03:58 4.02259 18.39605 5089 ft 303 kts 34°
2026-05-06 03:58 4.03990 18.40795 4606 ft 302 kts 36°
2026-05-06 03:58 4.05726 18.42028 4118 ft 302 kts 36°
2026-05-06 03:59 4.07433 18.43229 3639 ft 303 kts 35°
2026-05-06 03:59 4.09176 18.44437 3141 ft 300 kts 35°
2026-05-06 03:59 4.10865 18.45596 2975 ft 280 kts 34°
2026-05-06 03:59 4.12406 18.46650 2972 ft 256 kts 35°
2026-05-06 04:00 4.13825 18.47620 2991 ft 239 kts 35°
2026-05-06 04:00 4.15126 18.48563 2992 ft 223 kts 41°
2026-05-06 04:00 4.16126 18.49672 3004 ft 203 kts 56°
2026-05-06 04:00 4.16877 18.50822 2969 ft 187 kts 59°
2026-05-06 04:01 4.17560 18.51878 2903 ft 179 kts 58°
2026-05-06 04:01 4.18256 18.52909 2828 ft 173 kts 57°
2026-05-06 04:01 4.18924 18.53875 2752 ft 167 kts 57°
2026-05-06 04:01 4.19590 18.54833 2688 ft 168 kts 57°
2026-05-06 04:02 4.20267 18.55786 2616 ft 168 kts 51°
2026-05-06 04:02 4.21191 18.56494 2533 ft 169 kts 15°
2026-05-06 04:02 4.22343 18.56513 2477 ft 164 kts 345°
2026-05-06 04:02 4.23443 18.56204 2471 ft 165 kts 343°
2026-05-06 04:03 4.24584 18.55910 2470 ft 167 kts 345°
2026-05-06 04:03 4.25699 18.55632 2464 ft 166 kts 344°
2026-05-06 04:03 4.26836 18.55338 2466 ft 166 kts 344°
2026-05-06 04:03 4.27956 18.55045 2466 ft 166 kts 344°
2026-05-06 04:04 4.29072 18.54754 2467 ft 166 kts 344°
2026-05-06 04:04 4.30199 18.54462 2466 ft 166 kts 344°
2026-05-06 04:04 4.31322 18.54169 2466 ft 166 kts 344°
2026-05-06 04:04 4.32450 18.53877 2463 ft 165 kts 344°
2026-05-06 04:05 4.33580 18.53586 2468 ft 166 kts 344°
2026-05-06 04:05 4.34708 18.53294 2333 ft 175 kts 344°
2026-05-06 04:05 4.35944 18.52963 2027 ft 180 kts 343°
2026-05-06 04:05 4.37139 18.52657 1617 ft 177 kts 345°
2026-05-06 04:06 4.38307 18.52355 1289 ft 169 kts 346°
2026-05-06 04:06 4.39379 18.52079 1204 ft 136 kts 347°
2026-05-06 04:06 4.40041 18.51908 1212 ft 55 kts 345°
2026-05-06 04:06 4.40253 18.51846 1214 ft 10 kts 335°
2026-05-06 04:07 4.40250 18.51848 1214 ft 1 kts 335°
2026-05-06 04:07 4.40228 18.51858 1214 ft 0 kts 335°
2026-05-06 04:07 4.40229 18.51858 1214 ft 0 kts 335°
2026-05-06 04:07 4.40229 18.51857 1214 ft 0 kts 340°
2026-05-06 04:08 4.40242 18.51865 1214 ft 2 kts 111°
2026-05-06 04:08 4.40219 18.51869 1214 ft 3 kts 172°
2026-05-06 04:08 4.40201 18.51872 1214 ft 4 kts 172°
2026-05-06 04:08 4.40106 18.51888 1213 ft 17 kts 168°
2026-05-06 04:09 4.39987 18.51914 1211 ft 17 kts 167°
2026-05-06 04:09 4.39872 18.51940 1208 ft 16 kts 166°
2026-05-06 04:09 4.39786 18.51994 1208 ft 11 kts 109°
2026-05-06 04:09 4.39792 18.52065 1208 ft 8 kts 86°
2026-05-06 04:10 4.39799 18.52105 1209 ft 3 kts 79°
2026-05-06 04:10 4.39806 18.52137 1210 ft 11 kts 73°
2026-05-06 04:10 4.39828 18.52212 1211 ft 10 kts 75°
2026-05-06 04:10 4.39827 18.52270 1211 ft 7 kts 98°
2026-05-06 04:11 4.39822 18.52311 1211 ft 4 kts 90°
2026-05-06 04:11 4.39824 18.52329 1211 ft 0 kts 76°
2026-05-06 04:11 4.39825 18.52335 1211 ft 1 kts 76°
2026-05-06 04:11 4.39827 18.52341 1211 ft 1 kts 76°
2026-05-06 04:12 4.39828 18.52345 1211 ft 0 kts 76°
2026-05-06 04:12 4.39828 18.52346 1211 ft 0 kts 76°
2026-05-06 04:13 4.39828 18.52347 1211 ft 0 kts 76°